Miscellaneous Local Product
Issued by NWS North Platte, NE

Home | Current Version | Previous Version | Text Only | Print | Product List | Glossary On
Versions: 1 2 3 4 5 6 7 8 9 10 11 12 13 14 15 16 17 18 19 20 21 22 23 24 25 26 27 28 29 30 31 32 33 34 35 36 37 38 39 40 41 42 43 44 45 46 47 48 49 50
000
AXUS43 KLBF 220710
MISLBF


WESTERN AND NORTH CENTRAL NEBRASKA HOURLY WEATHER ROUNDUP
NATIONAL WEATHER SERVICE NORTH PLATTE NE
200 AM CDT WED OCT 22 2014

***STATIONS NOT REPORTING VARIABLES SUCH AS SKY/WEATHER OR
PRESSURE ARE PROVIDED BY THE NEBRASKA DEPARTMENT OF
ROADS...RAWS...AND APRS NETWORKS...AND ARE NOT UNDER
NATIONAL WEATHER SERVICE QUALITY CONTROL***

...OBSERVATIONS IN AND NEAR THE EASTERN PANHANDLE OF NEBRASKA...

CITY           SKY/WX    TMP DP  RH WIND       PRES   REMARKS
PINE RIDGE     CLOUDY    61  47  59 W3        29.84R
CHADRON        CLOUDY    60  49  66 W7        29.83R
ALLIANCE       CLOUDY    47  42  83 CALM      29.89R
SIDNEY         CLOUDY    56  41  57 NW16      29.94R
WHITECLAY        N/A     59  45  60 E6          N/A
RUSHVILLE        N/A     54  46  74 W9          N/A
CRESCENT LAKE    N/A     55  47  74 S6          N/A
LISCO            N/A     55  41  58 W3          N/A
BIG SPRINGS      N/A     58  47  68 S9          N/A
LEWELLEN         N/A     61  44  53 SE3         N/A
$$

...OBSERVATIONS IN NORTH CENTRAL NEBRASKA...

CITY           SKY/WX    TMP DP  RH WIND       PRES   REMARKS
VALENTINE      CLEAR     62  55  77 S15       29.85R
THEDFORD       CLEAR     62  54  74 S12       29.90S
AINSWORTH      CLEAR     58  53  81 S16G23    29.88S
O`NEILL        CLEAR     58  45  61 SE14      29.93S
ORD            CLEAR     55  49  80 SE6       29.94S
BROKEN BOW     PTCLDY    58  54  86 SE8       29.93S
BROWNLEE         N/A     62  57  86 S14         N/A
SPRINGVIEW       N/A     62  54  74 SE5         N/A
BREWSTER         N/A     62  58  86 S12         N/A
ROSE             N/A     59  56  89 E12         N/A
NEWPORT          N/A     60  52  76 SE10        N/A
SARGENT          N/A     56  52  88 CALM        N/A
COMSTOCK         N/A     63  58  84 S12         N/A
CHAMBERS         N/A     56  43  62 S3G12       N/A
$$

...OBSERVATIONS IN SOUTHWEST NEBRASKA AND FAR NORTHEAST COLORADO...

CITY           SKY/WX    TMP DP  RH WIND       PRES   REMARKS
WRAY           FAIR      61  46  59 S12G17    29.90S
HOLYOKE        FAIR      54  45  71 S5        29.90S
IMPERIAL       PTCLDY    61  46  57 S10       29.91S
OGALLALA       MOCLDY    61  49  64 S6        29.89R
NORTH PLATTE   CLEAR     63  51  65 S13       29.90F
MCCOOK         CLEAR     63  51  65 S15G23    29.93S
LEXINGTON      PTCLDY    60  55  83 SE8       29.95R
PAXTON           N/A     60  52  74 S12         N/A
SUTHERLAND       N/A     58  51  77 S13         N/A
BRADY            N/A     60  52  75 CALM        N/A
GOTHENBURG       N/A     62  52  69 SE5         N/A
CALLAWAY         N/A     59  56  88 S13         N/A
$$

...SOME WEATHER OBSERVATIONS FROM AROUND THE REGION...

CITY           SKY/WX    TMP DP  RH WIND       PRES   REMARKS
DENVER         LGT RAIN  57  42  57 W13       30.00R
LARAMIE        CLOUDY    43  38  82 S5        30.07F
CHEYENNE       LGT RAIN  50  41  71 NE3       30.04F
SCOTTSBLUFF    LGT RAIN  56  50  80 W16G28    29.96R
RAPID CITY     CLOUDY    62  42  47 N5        29.78R
PIERRE         PTCLDY    62  51  67 SE14      29.76F
WINNER         FAIR      65  53  65 S20G30    29.81F
SIOUX FALLS    CLEAR     54  43  66 SE17      30.01S
OMAHA          MOCLDY    57  44  62 SE17      30.08R
GRAND ISLAND   CLEAR     58  50  75 SE12      29.99R
KANSAS CITY    CLEAR     54  45  71 SE13      30.13R
WICHITA        PTCLDY    64  59  83 S9        30.04R
HAYS           PTCLDY    57  48  72 S8        30.00S
LIBERAL        CLEAR     57  46  67 S10       30.04S
GOODLAND       PTCLDY    53  47  79 S13       29.96S
$$



USA.gov is the U.S. government's official web portal to all federal, state and local government web resources and services.